Change the Weather History Date:

Thursday, February 7, 2013

  Actual Average Record
Temperature  
Mean Temperature 30 °F 32 °F  
Max Temperature 36 °F 40 °F 65 °F (2009)
Min Temperature 23 °F 25 °F 12 °F (2007)
Degree Days  
Heating Degree Days 35 33  
Month to date heating degree days 265 231  
Since 1 July heating degree days 3005 3255  
Cooling Degree Days 0 0  
Month to date cooling degree days 0 0  
Year to date cooling degree days 0 0  
Moisture  
Dew Point 21 °F    
Average Humidity 70    
Maximum Humidity 88    
Minimum Humidity 51    
Precipitation  
Precipitation 0.00 in 0.09 in 0.38 in (1999)
Month to date precipitation 0.05 0.63  
Year to date precipitation 3.03 3.31  
Sea Level Pressure  
Sea Level Pressure 30.37 in    
Wind  
Wind Speed 4 mph (ESE)    
Max Wind Speed 14 mph    
Max Gust Speed 17 mph    
Visibility 9 miles    
Events      
T = Trace of Precipitation, MM = Missing Value Source: NWS Daily Summary

Daily Weather History Graph

Daily Weather History Graph

Search for Another Location

Airport or City:

Trip Planner

Search our weather history database for the weather conditions in past years. The results will help you decide how hot, cold, wet, or windy it might be!

Date:

Astronomy

Feb. 07, 2013 Rise Set
Actual Time 7:12 AM EST 5:38 PM EST
Civil Twilight 6:44 AM EST 6:06 PM EST
Nautical Twilight 6:12 AM EST 6:38 PM EST
Astronomical Twilight 5:41 AM EST 7:09 PM EST
Moon 4:50 AM EST (2/7) 3:00 PM EST (2/7)
Length of Visible Light 11h 21m
Length of Day
10h 25m
Waning Crescent, 9% of the Moon is Illuminated
Feb 7
Waning Crescent
Feb 10
New
Feb 17
First Quarter
Feb 25
Full
Mar 4
Last Quarter

Hourly Weather History & Observations

Time (EST) Temp. Windchill Dew Point Humidity Pressure Visibility Wind Dir Wind Speed Gust Speed Precip Events Conditions
12:53 AM 27.0 °F - 18.0 °F 69% 30.40 in 10.0 mi Calm Calm - N/A   Clear
1:53 AM 26.1 °F - 18.0 °F 71% 30.42 in 8.0 mi Calm Calm - N/A   Clear
2:53 AM 26.1 °F - 17.1 °F 69% 30.41 in 10.0 mi Calm Calm - N/A   Clear
3:53 AM 25.0 °F - 19.0 °F 78% 30.39 in 7.0 mi Calm Calm - N/A   Clear
4:53 AM 23.0 °F - 19.0 °F 85% 30.42 in 7.0 mi Calm Calm - N/A   Clear
5:53 AM 25.0 °F - 19.0 °F 78% 30.43 in 7.0 mi Calm Calm - N/A   Clear
6:53 AM 26.1 °F 20.5 °F 21.0 °F 81% 30.45 in 8.0 mi ENE 4.6 mph - N/A   Clear
7:53 AM 26.1 °F 20.5 °F 19.9 °F 78% 30.46 in 6.0 mi ENE 4.6 mph - N/A   Haze
8:53 AM 28.9 °F - 21.0 °F 72% 30.46 in 7.0 mi Calm Calm - N/A   Clear
9:53 AM 32.0 °F - 19.9 °F 61% 30.45 in 10.0 mi Calm Calm - N/A   Mostly Cloudy
10:53 AM 33.1 °F - 19.9 °F 59% 30.44 in 10.0 mi Calm Calm - N/A   Mostly Cloudy
11:53 AM 34.0 °F 25.5 °F 18.0 °F 52% 30.42 in 10.0 mi SSE 11.5 mph - N/A   Overcast
12:53 PM 35.1 °F 27.4 °F 19.0 °F 52% 30.38 in 10.0 mi SSE 10.4 mph - N/A   Overcast
1:53 PM 36.0 °F 27.5 °F 19.9 °F 52% 30.36 in 10.0 mi SSE 12.7 mph - N/A   Overcast
2:53 PM 36.0 °F 29.0 °F 21.0 °F 55% 30.33 in 10.0 mi SE 9.2 mph - N/A   Overcast
3:53 PM 36.0 °F 29.6 °F 21.0 °F 55% 30.32 in 10.0 mi ESE 8.1 mph - N/A   Overcast
4:53 PM 36.0 °F 31.1 °F 21.9 °F 57% 30.32 in 10.0 mi SSE 5.8 mph - N/A   Overcast
5:53 PM 34.0 °F 28.8 °F 21.9 °F 61% 30.33 in 10.0 mi ESE 5.8 mph - N/A   Overcast
6:53 PM 34.0 °F 29.8 °F 21.9 °F 61% 30.33 in 10.0 mi ESE 4.6 mph - N/A   Overcast
7:53 PM 34.0 °F 29.8 °F 23.0 °F 64% 30.32 in 10.0 mi East 4.6 mph - N/A   Overcast
8:53 PM 34.0 °F 28.0 °F 21.9 °F 61% 30.30 in 10.0 mi ESE 6.9 mph - N/A   Overcast
9:22 PM 33.8 °F - 23.0 °F 65% 30.24 in 10.0 mi Calm Calm - N/A   Overcast
9:53 PM 34.0 °F - 23.0 °F 64% 30.28 in 10.0 mi Calm Calm - N/A   Overcast
10:53 PM 34.0 °F 29.8 °F 25.0 °F 70% 30.26 in 10.0 mi East 4.6 mph - N/A   Overcast
11:53 PM 34.0 °F 28.8 °F 26.1 °F 73% 30.24 in 10.0 mi East 5.8 mph - N/A   Overcast